Regional Weather Roundup
Issued by NWS Sterling, VA

Home | Current Version | Previous Version | Text Only | Print | Product List | Glossary Off
Versions: 1 2 3 4 5 6 7 8 9 10 11 12 13 14 15 16 17 18 19 20 21 22 23 24 25 26 27 28 29 30 31 32 33 34 35 36 37 38 39 40 41 42 43 44 45 46 47 48 49 50

000
ASUS41 KLWX 270910
RWRLWX

REGIONAL WEATHER ROUNDUP
NATIONAL WEATHER SERVICE BALTIMORE MD/WASHINGTON DC
500 AM EDT FRI MAR 27 2015

Note: "FAIR" indicates few or no clouds below 12,000 feet
with no significant weather and/or obstructions to visibility.
 TC=TEMPERATURE CELSIUS

 * =Non NWS site. Station does not report precipitation (e.g. rain,
    snow, etc.), thunder, or fog.

DCZ001-MDZ009-015-VAZ040>042-051-053>054-271000-
WASHINGTON METRO

CITY           SKY/WX    TMP DP  RH WIND       PRES   REMARKS
WASHINGTON NAT LGT RAIN  46  40  79 N13G23    29.82R
DULLES         RAIN      42  38  85 N7        29.81S FOG
ANDREWS AFB    LGT RAIN  44  42  93 NW16      29.79F
FT BELVOIR     LGT RAIN  44  40  87 NW9G17    29.82S
QUANTICO       LGT RAIN  45  40  82 NE12G25   29.83S
COLLEGE PARK*  CLOUDY    43  41  93 NW8       29.82S
LEESBURG*      RAIN      43  43 100 CALM      29.82S
MANASSAS*      CLOUDY    43  43 100 N9        29.82S
GAITHERSBURG*  CLOUDY    39  36  87 CALM      29.84F

$$

MDZ006>007-011-014-271000-
BALTIMORE METRO

CITY           SKY/WX    TMP DP  RH WIND       PRES   REMARKS
BWI AIRPORT    LGT RAIN  42  38  85 NW10G18   29.81R FOG
MD SCIENCE CTR   N/A     43  38  82 MISG      29.80S
MARTIN STATE   RAIN      43  39  87 NW13G23   29.84R
ANNAPOLIS      LGT RAIN  44  40  85 N15       29.79R FOG

$$

MDZ012-015-019>023-271000-
MARYLAND EASTERN SHORE

CITY           SKY/WX    TMP DP  RH WIND       PRES   REMARKS
OCEAN CITY     CLOUDY    49  45  86 N18       29.70R
SALISBURY      CLOUDY    47  43  86 N14G25    29.71R
BAY BRIDGE AP* DRIZZLE   43  43 100 N16       29.80S
CAMBRIDGE*     CLOUDY    46  41  81 N15G25    29.76R
EASTON*        DRIZZLE   46  46 100 N13       29.81R

$$

MDZ017>025-271000-
SOUTHERN MARYLAND

CITY           SKY/WX    TMP DP  RH WIND       PRES   REMARKS
PATUXENT RIVER CLOUDY    47  41  80 N18G25    29.76R
ST INIGOES     LGT RAIN  48  40  73 NW9G17    29.75R
LEONARDTOWN*   CLOUDY    45  41  87 NW7       29.77F

$$

MDZ003>005-271000-
NORTH CENTRAL MARYLAND

CITY           SKY/WX    TMP DP  RH WIND       PRES   REMARKS
FREDERICK*     LGT RAIN  45  37  76 CALM      29.84S
HAGERSTOWN APT CLOUDY    42  33  70 NW15      29.80S
WESTMINSTER*   RAIN      41  39  93 N5        29.79F

$$

MDZ501>502-271000-
WESTERN MARYLAND

CITY           SKY/WX    TMP DP  RH WIND       PRES   REMARKS
OAKLAND*       CLOUDY    30 N/A N/A NW6       29.74F HAZE
CUMBERLAND*    CLOUDY    43  32  65 NE3       29.86S

$$

VAZ025>031-271000-
SHENANDOAH VALLEY

CITY           SKY/WX    TMP DP  RH WIND       PRES   REMARKS
WINCHESTER*    LGT RAIN  43  36  75 NW10      29.80S
FRONT ROYAL*   CLOUDY    41  41 100 CALM      29.79F
LURAY*         LGT RAIN  43  43 100 CALM      29.79F
NEW MARKET*    CLOUDY    42  40  95 CALM      29.78F
STAUNTON*      LGT RAIN  42  39  90 NE7       29.77F
WAYNESBORO*    CLOUDY    40  39  95 N5        29.76F

$$

WVZ021-048>050-054>055-271000-
EASTERN WEST VIRGINIA PANHANDLE

CITY           SKY/WX    TMP DP  RH WIND       PRES   REMARKS
MARTINSBURG    LGT RAIN  43  36  76 N14       29.81F
PETERSBURG*    CLOUDY    43  35  72 N3        29.80F

$$

VAZ036>039-050-271000-
CENTRAL FOOTHILLS

CITY           SKY/WX    TMP DP  RH WIND       PRES   REMARKS
CHARLOTTESVILL LGT RAIN  44  40  85 N5        29.77F
CULPEPER*      RAIN      45  43  93 NE6       29.81F
ORANGE*        LGT RAIN  45  43  93 N7        29.81R
GORDONSVILLE*  CLOUDY    43  42  96 NE7       29.78F
WARRENTON*     RAIN      44  44 100 N7        29.81S

$$

VAZ055>057-271000-
NORTH AND CENTRAL PIEDMONT

CITY           SKY/WX    TMP DP  RH WIND       PRES   REMARKS
FREDERICKSBRG* LGT RAIN  46  46 100 N10       29.80F
STAFFORD*      LGT RAIN  43  32  64 N12       29.85S

$$

NCZ024-NYZ072-PAZ021-071-VAZ022-071-271000-
OTHER REGIONAL OBSERVATIONS

CITY           SKY/WX    TMP DP  RH WIND       PRES   REMARKS
NEW YORK CITY  LGT RAIN  42  39  89 VRB3      29.76R FOG
PHILADELPHIA   LGT RAIN  43  38  82 N15G25    29.78R
PITTSBURGH     CLOUDY    34  32  92 W6        29.83F
ROANOKE        LGT RAIN  44  37  76 NW10      29.77F
RICHMOND       CLOUDY    49  41  74 N17G26    29.75F
RALEIGH        MOCLDY    62  57  83 NW8       29.65F

$$

ANZ530>537-271000-
MARINE OBSERVATIONS

STATION/POSITION TIME  TEMP    WIND        PRES
                       AIR SEA DIR/SP/G
                 (UTC) (F)     (DEG/KT/KT) (MB)
THOMAS PT LIGHT  0900                        N/A
BALT KEY BRIDGE  0800   45     320/ 12/ 16 1008.7R
COVE POINT       0800   44     350/ 20/ 22 1007.4R
LEWISETTA        0800   48 45              1007.0R
SOLOMONS ISLAND  0800      44                N/A
PINEY POINT      0800          350/ 18/ 21   N/A

$$



USA.gov is the U.S. government's official web portal to all federal, state and local government web resources and services.